sat.trackr.live / text

‹ back to catalog

ASTROCAST 0.1

NORAD 43798 · 2018-099AS

PAYLOAD ACTIVE UNKNOWN

§ Identity

Operator
Country
SWTZ
Launch date
2018-12-03
Launch site
AFWTR
Launch vehicle
Mass (kg)
RCS (m²)

External: N2YO · Heavens-Above · Gunter

§ Orbital elements

Epoch: 2026-05-25T04:40:55.718976Z

Period
93.03 min
Inclination
97.4382°
Eccentricity
0.0003299
Mean motion
15.47817259 rev/d
Perigee alt
420.9 km
Apogee alt
425.4 km
Semi-major
6,801.2 km
B*
6.6908e-4
RAAN
223.0040°
Arg perigee
300.8639°
Mean anomaly
59.2286°
Rev number
41,087

§ Raw data

ASTROCAST 0.11 43798U 18099AS  26145.19508934  .00034762  00000+0  66908-3 0  99982 43798  97.4382 223.0040 0003299 300.8639  59.2286 15.47817259410870

JSON: /api/v1/satellites/43798 · /tle

For live sub-satellite position, see the globe view (requires WebGL).

§ Visibility from observer

Set your observer location to see the next 7 days of passes ≥ 10°. The values pass through the URL so the page stays shareable.

No JS? Fill the form by hand. The geolocation button needs JavaScript.

§ Radio — SatNOGS DB

ModeDescriptionDownlinkUplink
FSK Mode U - FSK1k2 437.150 MHz
FM Transmitter 2.406 GHz
AFSK Mode U - AFSK1k2 (inactive) 437.300 MHz

3 transmitters · refreshed weekly from db.satnogs.org